Lid_Strength_Index
-0 0 2 7 13 15 17 14 13 12 11 10 10 10 10 8 9 11 4 2 0 0 -0 -0 -1 -1 -1 -1 -1 -1 -1 -1 -2 -2 -2 -2 -2 -2 -2 -2 -2 -2 -2 -2 -2 -2 -2 -2 -2
1 1 5 10 15 20 19 14 13 11 10 9 9 9 8 9 6 6 4 1 0 0 -0 -0 -1 -1 -1 -1 -1 -1 -1 -1 -2 -2 -2 -2 -2 -2 -2 -2 -2 -2 -2 -2 -2 -2 -2 -2 -2
0 1 8 12 16 18 17 14 11 10 9 9 9 9 8 7 5 5 4 1 0 0 -0 -0 -1 -1 -1 -1 -1 -1 -1 -2 -1 -2 -2 -2 -2 -2 -2 -2 -2 -2 -2 -2 -2 -2 -2 -2 -2
3 7 8 14 16 15 13 12 11 10 10 10 8 10 6 5 5 3 3 0 0 0 -0 -0 -1 -1 -1 -1 -1 -1 -2 -2 -2 -2 -2 -2 -2 -2 -2 -2 -2 -2 -2 -2 -2 -2 -1 -2 -2
3 9 13 16 15 14 11 9 11 10 10 9 8 9 7 5 3 2 3 1 1 0 -0 -0 -1 -1 -1 -1 -1 -1 -2 -2 -2 -2 -2 -2 -2 -2 -2 -2 -2 -2 -2 -2 -2 -2 -2 -2 -2
8 11 16 16 15 12 11 10 11 11 10 9 9 8 7 5 4 3 3 1 0 0 -0 -0 -0 -1 -1 -1 -1 -1 -1 -2 -2 -2 -2 -2 -2 -2 -2 -2 -2 -2 -2 -2 -2 -2 -2 -2 -2
9 14 15 17 15 14 10 9 11 11 12 10 8 9 7 5 4 3 2 1 0 0 0 -0 -0 -0 -0 -1 -1 -1 -1 -1 -1 -1 -2 -1 -1 -1 -2 -2 -2 -2 -2 -2 -2 -2 -2 -2 -1
7 11 15 15 16 14 10 9 8 10 10 9 8 10 8 6 4 3 1 1 1 0 0 0 -0 -0 -0 -0 -0 -0 -1 -1 -1 -0 0 0 -0 -1 -1 -1 -1 -2 -2 -2 -2 -1 -2 -1 -1
5 12 15 15 14 12 10 11 10 8 9 9 8 7 5 3 3 3 3 2 2 1 1 0 0 0 -0 -0 0 0 0 1 1 1 2 2 1 1 0 -0 -1 -1 -2 -1 -0 0 1 2 1
9 12 12 10 11 11 10 10 10 11 11 10 6 5 3 3 3 4 4 4 3 2 1 1 0 1 1 1 1 1 1 2 2 2 3 4 3 2 1 1 0 -0 0 1 1 1 3 5 6
9 12 8 9 8 9 9 9 10 10 12 11 7 6 5 4 5 5 4 3 3 2 1 1 1 1 1 2 2 1 3 3 4 5 4 4 4 4 4 4 4 5 5 6 6 8 8 7 7
11 8 8 7 6 7 9 8 11 11 10 8 5 5 5 5 5 5 4 3 3 3 2 2 1 2 2 2 3 4 5 4 5 5 5 5 6 5 5 4 4 6 6 7 7 9 9 9 9
10 9 7 7 7 7 6 9 10 11 9 8 6 5 5 5 4 3 3 3 4 4 3 2 2 3 4 5 5 6 6 7 6 6 5 5 6 7 7 6 5 7 6 7 9 9 10 11 11
8 8 8 7 8 7 8 8 9 9 9 8 7 5 5 5 4 4 3 4 4 3 3 3 3 3 4 5 6 7 8 8 9 9 8 8 8 8 7 6 6 7 7 8 8 10 10 11 11
8 11 9 9 8 9 7 10 10 9 9 8 7 6 5 5 4 4 3 3 5 4 4 4 4 4 5 6 7 8 8 9 10 10 10 10 9 7 7 6 6 8 9 8 9 10 10 12 11
10 11 15 10 9 8 9 14 8 8 10 9 8 7 6 5 4 3 3 3 4 6 5 5 5 5 6 7 7 9 10 11 12 11 10 11 10 9 8 7 7 8 8 8 9 9 11 11 11
12 16 15 12 9 9 10 13 8 8 9 11 10 8 7 6 5 4 3 3 5 6 7 7 7 7 8 9 10 10 11 11 12 12 11 11 10 10 9 7 8 6 7 8 9 10 10 11 11
16 16 13 14 11 10 11 11 9 8 8 10 10 9 7 6 5 4 4 4 5 7 7 8 9 9 9 11 11 12 12 12 12 13 12 11 11 10 10 10 9 7 8 8 9 10 10 11 11
13 13 15 12 9 11 12 12 10 8 8 8 11 10 7 6 4 4 5 5 6 7 8 9 10 10 10 11 12 13 13 13 13 13 12 11 11 10 11 11 11 10 9 11 9 10 11 12 12
13 15 15 12 11 12 12 12 9 9 9 8 8 10 9 7 5 4 5 6 6 7 8 8 9 9 9 9 10 11 12 12 13 12 12 11 11 11 11 11 12 12 11 11 11 12 13 14 13
13 14 15 15 12 11 13 14 12 9 8 8 8 8 7 6 6 5 6 6 7 8 8 9 9 9 9 10 11 13 13 12 13 13 13 12 11 11 11 11 12 13 12 12 13 12 13 14 14
16 11 12 14 15 18 12 20 14 12 10 9 10 10 8 6 5 6 7 8 8 8 8 8 10 9 10 10 11 12 12 14 14 14 14 13 12 12 11 11 12 13 14 14 14 13 13 13 14
14 11 12 13 15 16 16 17 17 11 12 14 14 12 10 6 5 7 7 8 9 8 8 9 9 10 10 11 10 11 12 14 14 14 14 15 13 12 12 12 13 14 14 15 14 15 15 14 13
10 12 12 13 15 20 17 17 19 14 13 17 13 12 12 9 8 8 8 9 10 9 9 9 10 11 10 9 11 11 15 15 15 15 15 15 14 13 13 13 13 13 13 14 15 15 15 14 14
12 15 20 21 21 21 15 17 18 17 17 16 14 13 13 12 11 10 10 10 10 10 10 10 11 11 10 11 11 12 14 14 14 14 15 15 15 14 14 13 14 14 14 14 14 15 15 15 15
14 14 19 23 22 20 15 19 22 16 16 13 13 13 13 13 12 12 12 11 12 11 10 11 11 12 11 12 12 13 13 14 14 14 14 15 14 14 14 13 13 13 14 15 15 15 15 15 16
15 17 13 18 17 19 18 20 17 16 15 14 14 13 14 13 13 13 13 12 12 12 12 11 12 12 13 13 14 13 13 14 15 14 14 15 14 14 14 13 13 13 13 14 15 15 16 16 16
15 13 17 17 22 23 19 20 21 18 17 15 15 15 14 14 14 14 13 13 13 13 13 12 12 13 13 14 13 13 14 14 14 14 15 14 14 14 14 14 14 14 14 14 15 16 16 16 17
16 17 16 17 21 21 22 23 18 17 16 16 15 14 14 14 14 14 14 14 13 13 14 14 14 14 14 14 14 14 15 14 14 15 14 14 14 14 14 14 14 14 14 15 16 16 16 17 17
15 16 16 21 20 20 22 25 17 16 16 15 15 15 14 14 14 14 14 14 14 14 14 14 14 15 15 14 14 15 15 15 15 15 15 14 14 14 14 14 14 15 15 16 17 16 17 17 18